Content
SEND FEEDBACK

Daily
Averages
Monthly
Summary
United States of America

WILMINGTON, NORTH CAROLINA


Home > North America > United States > North Carolina
Elevation: 72 feet     Latitude: 34 16N     Longitude: 077 54W

WEATHER
 
SELECT A DAY
Number of Records: 208,938;   Date Range: 1/1/95 - 8/12/14
 
SHARE

PRINT THIS DATA

[ ← Previous Day ]
WEATHER ALMANAC - APRIL 20, 2013
[ Next Day → ]
[ °C ]   °F
Weather ElementAverageHighLow
Temperature58.5 °F68 °F (1:22 am)48.9 °F (11:53 pm)
Dewpoint51 °F66.2 °F (1:22 am)39.9 °F (3:53 pm)
Humidity77.3 %94 % (1:22 am)49 % (3:53 pm)
Barometer30.04 in30.26 in (10:53 pm)29.89 in (2:48 am)
Wind Speed9.9 mph20.7 mph (5:05 am)
Wind Gust26.5 mph (8:53 am)
Weather ElementAverage
Visibility9.6 mi
Wind DirectionWSW (235.4 °)

Weather ElementTotal
Precipitation0.44 in
Heating Degree Days6.6 (Base 65)
Growing Degree Days8.5 (Base 50)
Averaged from 35 records on April 20, 2013
WEATHER CONDITIONS BREAKOUT
WIND DIRECTION BREAKOUT
WEATHER BY HOUR - APRIL 20, 2013
[ °C ]   °F
Local TimeTemperatureDewpointHumidityBarometerVisibilityWind DirectionWind SpeedGust SpeedPrecipitationEventsConditions
1:22 AM68.0 °F66.2 °F94 %29.90 in10.0 miWSW (240°)9.2 mph0.02 inRainLight Rain
1:31 AM68.0 °F66.2 °F94 %29.90 in10.0 miSW (230°)9.2 mph0.02 inRainLight Rain
1:53 AM68.0 °F66.0 °F93 %29.90 in8.0 miSW (230°)10.4 mph0.05 inRainLight Rain
2:48 AM68.0 °F66.2 °F94 %29.89 in6.0 miWSW (240°)8.1 mph0.05 inRainRain
2:53 AM68.0 °F66.0 °F93 %29.90 in5.0 miSW (230°)8.1 mph0.06 inRainRain
3:49 AM66.2 °F64.4 °F94 %29.89 in10.0 miWest (260°)15.0 mph20.7 mph0.09 inRainLight Rain
3:53 AM66.9 °F62.1 °F84 %29.89 in10.0 miWest (260°)16.1 mph20.7 mph0.09 inRainLight Rain
4:42 AM62.6 °F60.8 °F94 %29.91 in10.0 miWNW (290°)17.3 mph0.00 inRainLight Rain
4:53 AM61.0 °F57.0 °F87 %29.92 in10.0 miWNW (290°)13.8 mph24.2 mph0.00 inRainLight Rain
4:57 AM60.8 °F57.2 °F88 %29.93 in10.0 miWNW (300°)11.5 mph21.9 mph0.00 inRainLight Rain
5:05 AM59.0 °F55.4 °F88 %29.94 in10.0 miWNW (290°)20.7 mph25.3 mph0.00 inRainLight Rain
5:15 AM57.2 °F51.8 °F82 %29.95 in10.0 miWNW (290°)13.8 mph0.00 inRainLight Rain
5:31 AM55.4 °F51.8 °F88 %29.95 in10.0 miWNW (290°)11.5 mph0.00 inRainLight Rain
5:53 AM55.0 °F50.0 °F83 %29.94 in10.0 miNW (310°)9.2 mph0.00 inRainLight Rain
6:53 AM55.9 °F52.0 °F87 %29.99 in10.0 miWest (280°)6.9 mph0.01 inRainLight Rain
7:53 AM55.9 °F53.1 °F90 %30.04 in7.0 miWNW (300°)8.1 mph0.03 inRainLight Rain
8:21 AM55.4 °F53.6 °F94 %30.04 in10.0 miNW (310°)6.9 mph0.01 inRainLight Rain
8:53 AM55.0 °F48.0 °F77 %30.05 in10.0 miNorth (350°)15.0 mph26.5 mph0.01 inOvercast
9:00 AM53.6 °F46.4 °F77 %30.05 in10.0 miNNW (340°)12.7 mphOvercast
9:19 AM53.6 °F46.4 °F77 %30.07 in10.0 miNNW (340°)11.5 mphOvercast
9:53 AM54.0 °F45.0 °F72 %30.09 in10.0 miNorth (360°)11.5 mphOvercast
10:53 AM55.0 °F44.1 °F67 %30.12 in10.0 miNorth (350°)12.7 mphOvercast
11:53 AM57.0 °F44.1 °F62 %30.13 in10.0 miNorth (10°)12.7 mph20.7 mphMostly Cloudy
12:53 PM57.9 °F42.1 °F56 %30.14 in10.0 miNorth (10°)10.4 mphClear
1:53 PM59.0 °F42.1 °F53 %30.14 in10.0 miNNW (330°)10.4 mphClear
2:53 PM59.0 °F44.1 °F58 %30.13 in10.0 miNNW (340°)6.9 mphClear
3:53 PM59.0 °F39.9 °F49 %30.12 in10.0 miNorth (350°)9.2 mphClear
4:53 PM59.0 °F41.0 °F51 %30.13 in10.0 miNorth (10°)8.1 mphClear
5:53 PM57.9 °F39.9 °F51 %30.16 in10.0 miNorth (10°)5.8 mphClear
6:53 PM57.0 °F43.0 °F59 %30.17 in10.0 miNNE (20°)3.5 mphClear
7:53 PM55.0 °F45.0 °F69 %30.19 in10.0 miNNW (340°)4.6 mphClear
8:53 PM53.1 °F46.0 °F77 %30.23 in10.0 miNorth (360°)3.5 mphClear
9:53 PM52.0 °F43.0 °F71 %30.25 in10.0 miNNE (20°)4.6 mphClear
10:53 PM50.0 °F42.1 °F74 %30.26 in10.0 miNNE (30°)4.6 mphClear
11:53 PM48.9 °F42.1 °F77 %30.26 in10.0 miNNE (30°)4.6 mphClear
Hourly data recorded from KILM, located miles away from Wilmington, North Carolina







STORIES FROM OUR PARTNERS